User: anonymous   Login
Location: Makakahi
(40.6833°S, 175.6000°E)
Time: 14:42:12
(UTC+00:00)
Language:

Cosmos 2228 Rocket - Orbit

View from above orbital plane
View from above orbital plane
View from above satellite
View from above satellite

Ground track
Ground track

The orbit data is extracted from the following two-line orbital elements,

1 22287U 92094B   24257.71214835  .00001550  00000-0  20471-3 0  9994
2 22287  82.5247 137.3871 0023112 316.1001  43.8374 14.79268849709409
Epoch (UTC): 13 September 2024 17:05:29
Eccentricity: 0.0023112
inclination: 82.5247°
perigee height: 615 km
apogee height: 648 km
right ascension of ascending node: 137.3871°
argument of perigee: 316.1001°
revolutions per day: 14.79268849
mean anomaly at epoch: 43.8374°
orbit number at epoch: 70940

The dashed part of the orbit path shows where the satellite is in the earth's shadow,  

DLR